Regional Weather Roundup
Issued by NWS

Home | Current Version | Previous Version | Graphics & Text | Print | Product List | Glossary On
Versions: 1 2 3 4 5 6 7 8 9 10 11 12 13 14 15 16 17 18 19 20 21 22 23 24 25 26 27 28 29 30 31 32 33 34 35 36 37 38 39 40 41 42 43 44 45 46 47 48 49 50
053
ASUS43 KDMX 200601
RWRIA

WEATHER ROUNDUP FOR IOWA
NATIONAL WEATHER SERVICE DES MOINES IA
1200 AM CST FRI JAN 20 2017

NOTE: "FAIR" INDICATES FEW OR NO CLOUDS BELOW 12,000 FEET WITH NO
SIGNIFICANT WEATHER AND/OR OBSTRUCTIONS TO VISIBILITY.

* - THESE STATIONS ARE NOT NWS STATIONS...THUS NOT UNDER NWS
QUALITY CONTROL.  THEY ALSO DO NOT REPORT WEATHER SUCH
AS PRECIPITATION OR FOG.

IAZ001>003-012>014-020>022-031>034-043>046-200700-
   NORTHWEST IOWA

CITY           SKY/WX    TMP DP  RH WIND       PRES   REMARKS
CARROLL *      FOG       34  34 100 SE5       29.61F VSB 1/4 WCI  30
CHEROKEE *     CLOUDY    36  36 100 S3        29.60F FOG
DENISON *      FOG       37  37 100 SE5       29.59F VSB 3/4 WCI  34
LE MARS *      MIX PCPN  37  37 100 SE8       29.60F VSB 3/4 WCI  31
ORANGE CITY *  FOG       36  36 100 S5        29.59F VSB 1/2 WCI  32
SHELDON *      FOG       36  36 100 S8        29.58F VSB 1   WCI  29
SIOUX CITY     FOG       39  38  96 SE5       29.60F VSB 1/4
6HR MIN TEMP:  38; 6HR MAX TEMP:  40;

SPENCER        FOG       35  35 100 S7        29.60F VSB 1/2 WCI  29
6HR MIN TEMP:  35; 6HR MAX TEMP:  37;

STORM LAKE *   FOG       34  34 100 S7        29.60F VSB 1/4 WCI  28
$$

IAZ055>058-069>071-079>083-090>094-200700-
   SOUTHWEST IOWA

CITY           SKY/WX    TMP DP  RH WIND       PRES   REMARKS
ATLANTIC *     CLOUDY    37  37 100 CALM      29.61F FOG
AUDUBON *      FOG       36  34  93 CALM      29.62F VSB 1/2
CLARINDA *     FOG       39  39 100 CALM      29.63F VSB 1/4
COUNCIL BLFS * FOG       39  39 100 E5        29.60F VSB<1/4
CRESTON *      FOG       37  37 100 E3        29.62F VSB 1/4
HARLAN  *      CLOUDY    37  37 100 CALM      29.64F FOG
LAMONI         FOG       38  37  97 NW3       29.61F VSB 1/4
6HR MIN TEMP:  38; 6HR MAX TEMP:  42;

RED OAK *      FOG       37  37 100 CALM      29.61F VSB 1/2
SHENANDOAH *   FOG       39  39 100 CALM      29.62F VSB 1/2
$$

IAZ047>049-059>061-072>074-084-200700-
   CENTRAL IOWA

CITY           SKY/WX    TMP DP  RH WIND       PRES   REMARKS
AMES           FOG       34  34 100 CALM      29.62F VSB 1/4
6HR MIN TEMP:  34; 6HR MAX TEMP:  36;

ANKENY *       FOG       36  36 100 CALM      29.63F VSB 1/4
BOONE *        FOG       36  36 100 CALM      29.61F VSB 1/4
CHARITON *     FOG       37  37 100 CALM      29.61F VSB<1/4
DES MOINES     FOG       38  36  92 CALM      29.62F VSB 1/8
6HR MIN TEMP:  37; 6HR MAX TEMP:  38; 6HR PCP: TRACE;

GRINNELL*      FOG       36  35  98 E3        29.62F VSB 1/4
KNOXVILLE *    FOG       37  36  93 CALM      29.61F VSB<1/4
MARSHALLTOWN   FOG       35  35 100 E5        29.62F VSB 1/4 WCI  31
6HR MIN TEMP:  35; 6HR MAX TEMP:  36; 6HR PCP:  0.01;

NEWTON *       FOG       36  36 100 E5        29.61F VSB 1/4 WCI  32
PELLA *        FOG       37  36  99 CALM      29.63F VSB 1/2
PERRY *        FOG       35  35  98 CALM      29.62F VSB 1/4
$$

IAZ004>006-015-016-023>025-035-036-200700-
   NORTH CENTRAL IOWA

CITY           SKY/WX    TMP DP  RH WIND       PRES   REMARKS
ALGONA *       FOG       36  36 100 SE7       29.61F VSB<1/4 WCI  30
CLARION *      FOG       34  34 100 E5        29.63F VSB 1/4 WCI  30
ESTHERVILLE    FOG       33  33 100 SE7       29.60F VSB 1/4 WCI  27
6HR MIN TEMP:  33; 6HR MAX TEMP:  34;

FORT DODGE *   CLOUDY    36  34  93 S5        29.62F VSB 3/4 WCI  32
MASON CITY     FOG       34  33  96 SE7       29.64F VSB 1/4 WCI  28
6HR MIN TEMP:  33; 6HR MAX TEMP:  35; 6HR PCP:  0.10;

FOREST CITY *  FOG       34  34 100 SE6       29.62F VSB 1/2 WCI  29
WEBSTER CITY * FOG       34  34 100 SE5       29.60F VSB<1/4 WCI  30
IOWA FALLS *   FOG       35  34  97 E3        29.64F VSB 1/4
$$

IAZ007>011-017>019-026>030-037>042-050>054-066-200700-
   NORTHEAST IOWA

CITY           SKY/WX    TMP DP  RH WIND       PRES   REMARKS
CEDAR RAPIDS   FOG       35  35 100 E7        29.64F VSB 3/4 WCI  29
6HR MIN TEMP:  35; 6HR MAX TEMP:  36; 6HR PCP:  0.02;

CHARLES CITY * FOG       34  34 100 E8        29.65F VSB 1/2 WCI  27
CLINTON *      CLOUDY    37  37 100 E7        29.65F FOG     WCI  32
DECORAH *      MIX PCPN  34  34 100 E9        29.66F VSB 1   WCI  26
DUBUQUE        FOG       36  36 100 E8        29.65F VSB 1/4 WCI  30
6HR MIN TEMP:  35; 6HR MAX TEMP:  36; 6HR PCP:  0.15;

MONTICELLO *   FOG       37  37 100 E8        29.66F VSB 1   WCI  31
OELWEIN *      FOG       34  34 100 E9        29.66F VSB 3/4 WCI  26
WATERLOO       FOG       35  34  96 E7        29.64F VSB 1/2 WCI  29
6HR MIN TEMP:  35; 6HR MAX TEMP:  37; 6HR PCP:  0.04;

$$

IAZ064-065-067-068-078-200700-
   EAST CENTRAL IOWA

CITY           SKY/WX    TMP DP  RH WIND       PRES   REMARKS
DAVENPORT      FOG       36  36 100 E6        29.64F VSB 1/2 WCI  31
6HR MIN TEMP:  36; 6HR MAX TEMP:  38; 6HR PCP:  0.09;

IOWA CITY      FOG       37  37 100 NE5       29.66F VSB 1   WCI  33
6HR MIN TEMP:  37; 6HR MAX TEMP:  40; 6HR PCP:  0.02;

MUSCATINE *    MIX PCPN  37  37 100 CALM      29.65F VSB 3/4
QUAD CITIES    CLOUDY    38  36  92 E7        29.63F FOG     WCI  33
6HR MIN TEMP:  37; 6HR MAX TEMP:  38; 6HR PCP:  0.08;

$$

IAZ062-063-075>077-085>089-095>099-200700-
   SOUTHEAST IOWA

CITY           SKY/WX    TMP DP  RH WIND       PRES   REMARKS
BURLINGTON     FOG       38  38 100 E5        29.63F VSB 1/4 WCI  34
6HR MIN TEMP:  38; 6HR MAX TEMP:  41;

FAIRFIELD *    FOG       37  37 100 E5        29.62F VSB<1/4 WCI  34
FORT MADISON * FOG       39  37  93 CALM      29.64F VSB<1/4
KEOKUK *       FOG       41  41 100 E6        29.63F VSB<1/4
OSKALOOSA *    FOG       36  36  99 E5        29.62F VSB 1/4 WCI  32
OTTUMWA        FOG       38  38 100 E6        29.61F VSB 1/4 WCI  33
6HR MIN TEMP:  38; 6HR MAX TEMP:  38;

WASHINGTON *   FOG       37  37 100 E5        29.64F VSB<1/4 WCI  34
$$

ABBREVIATIONS USED IN REMARKS
   TC - TEMPERATURES IN CELSIUS
  WCI - WIND CHILL INDEX
   HX - HEAT INDEX
  VSB - VISIBILITY
$$





USA.gov is the U.S. government's official web portal to all federal, state and local government web resources and services.